Location: Home
(42.5358°N, 72.7383°W)
Time: 19:56:42
(UTC-04:00)

First-Move - Pass Details

Date: 19 August 2022
Orbit: 569 x 659 km, 97.6° (Epoch: 27 September)

Event Time Altitude Azimuth Distance (km) Brightness Sun altitude
Rises 03:40:53 0° 32° (NNE) 2,865 ? -22.9°
Reaches altitude 10° 03:44:02 10° 57° (ENE) 1,935 ? -22.5°
Maximum altitude 03:46:18 14° 90° (E) 1,655 ? -22.2°
Drops below altitude 10° 03:48:33 10° 124° (ESE) 1,901 ? -21.9°
Enters shadow 03:51:08 - 146° (SSE) 2,626 ? -21.5°
